Regional Weather Roundup
Issued by NWS

Home | Current Version | Previous Version | Text Only | Print | Product List | Glossary On
Versions: 1 2 3 4 5 6 7 8 9 10 11 12 13 14 15 16 17 18 19 20 21 22 23 24 25 26 27 28 29 30 31 32 33 34 35 36 37 38 39 40 41 42 43 44 45 46 47 48 49 50
000
ASUS45 KTFX 280810
RWRMT
MONTANA REGIONAL WEATHER ROUNDUP
NATIONAL WEATHER SERVICE GREAT FALLS MT
200 AM MDT SUN MAY 28 2017

NOTE: "FAIR" INDICATES FEW OR NO CLOUDS BELOW 12000 FEET WITH NO
SIGNIFICANT WEATHER AND/OR OBSTRUCTIONS TO VISIBILITY.

MTZ001>007-043-280900-
WEST OF THE DIVIDE

CITY           SKY/WX    TMP DP  RH WIND       PRES   REMARKS
KALISPELL      PTCLDY    47  44  90 NW3       30.15R
MISSOULA       CLEAR     54  41  61 CALM      30.22R
BUTTE          CLEAR     41  33  73 S3        30.29R
MULLAN PASS    CLEAR     53  36  52 NW7       30.29S
ANACONDA         N/A     46  34  61 SW6       30.26S
DEER LODGE       N/A     43  36  75 CALM      30.28R
EUREKA           N/A     52  43  71 CALM      30.14R
HAMILTON         N/A     52  37  58 S7        30.22S
RONAN            N/A     50  41  71 CALM      30.20R
$$

MTZ008-052>055-280900-
SOUTHWEST MONTANA

CITY           SKY/WX    TMP DP  RH WIND       PRES   REMARKS
BOZEMAN        CLEAR     42  37  82 SE9       30.24R
DILLON         CLEAR     42  33  70 S6        30.26R
ENNIS          CLEAR     41  34  75 N5        30.32R
THREE FORKS      N/A     44  40  86 CALM      30.20R
$$

MTZ009-010-012-014-046-048-049-054-280900-
EAST SLOPES AND CENTRAL MONTANA

CITY           SKY/WX    TMP DP  RH WIND       PRES   REMARKS
CUT BANK       PTCLDY    56  39  53 E5        30.16S
GREAT FALLS    CLOUDY    51  41  68 E5        30.17S
MALMSTROM AFB  PTCLDY    51  43  73 SW14      30.15F
HELENA         CLEAR     57  39  51 SW7       30.19S
CHOTEAU          N/A     52  39  62 W6        30.20S
CONRAD           N/A     51  48  89 W3        30.17S
$$

MTZ011-013-016-021-045-047-050-051-280900-
NORTH CENTRAL MONTANA

CITY           SKY/WX    TMP DP  RH WIND       PRES   REMARKS
HAVRE          CLOUDY    48  42  80 W6        30.09R
LEWISTOWN      PTCLDY    48  43  82 S10       30.16F
N BAR RANCH      N/A     48  43  81 NW14      30.19F
CHINOOK          N/A     50  46  87 CALM      30.08R
FORT BENTON      N/A     57  45  62 CALM        N/A
$$

MTZ017>020-022>027-061-062-280900-
NORTHEAST MONTANA

CITY           SKY/WX    TMP DP  RH WIND       PRES   REMARKS
GLASGOW        CLOUDY    58  41  53 N9        30.04R
JORDAN           N/A     56  43  61 W12       30.06R
SIDNEY         CLEAR     52  36  54 NW13      29.97R
WOLF POINT     PTCLDY    53  34  48 NW7       30.01R
MALTA          CLEAR     46  45  93 SW5       30.06R
PLENTYWOOD       N/A     48  34  57 NW6       29.97S
POPLAR           N/A     48  34  57 N7        30.01R
SCOBEY           N/A     44  27  51 CALM      29.99R
$$

MTZ028>42-056>058-280900-
SOUTHCENTRAL AND SOUTHEAST MONTANA

CITY           SKY/WX    TMP DP  RH WIND       PRES   REMARKS
BAKER          PTCLDY    50  38  63 W5        30.02R
BILLINGS       CLOUDY    57  39  51 N10       30.17R
LIVINGSTON     PTCLDY    39  35  86 CALM      30.23R
MILES CITY     CLOUDY    63  38  39 NW10      30.04R
BIG TIMBER     CLOUDY    52  37  58 N15G21    30.24R
EKALAKA          N/A     52  38  58 W6        30.01S
FORSYTH          N/A     63  39  42 W7        30.06S
LAUREL           N/A     58  37  45 CALM      30.16F
ROUNDUP          N/A     58  43  57 SW6       30.06F
$$

REGIONAL REPORTS...DAKOTAS

CITY           SKY/WX    TMP DP  RH WIND       PRES   REMARKS
WILLISTON      CLEAR     50  35  56 NW12      29.95R
MINOT          CLOUDY    56  44  64 W13       29.85R
DICKINSON      CLEAR     42  37  82 W7        29.93R
BEACH            N/A     52  37  58 NW12      30.01S
CROSBY           N/A     46  37  71 W10       29.93S
TIOGA            N/A     45  45 100 W13       29.94R
WATFORD CITY     N/A     45  36  70 SW5       29.94R
BISMARCK       CLEAR     44  40  85 CALM      29.88R
GRAND FORKS    CLOUDY    53  50  89 SW5       29.74R
FARGO          CLOUDY    51  47  86 W9        29.76S
BUFFALO SD       N/A     52  43  71 W9        29.93S
RAPID CITY     CLEAR     49  38  65 W8        30.02F
$$

REGIONAL REPORTS...WYOMING/IDAHO/WASHINGTON

CITY           SKY/WX    TMP DP  RH WIND       PRES   REMARKS
GILLETTE       CLEAR     49  40  71 W13       30.13F
SHERIDAN       CLEAR     49  39  68 W8        30.14S
BUFFALO WY     CLEAR     52  35  52 W10       30.18S
CODY           MOCLDY    53  33  46 SW6       30.24S
YELLOWSTONE LA   N/A     28  28 100 W3        30.40S
IDAHO FALLS    CLEAR     45  42  89 CALM      30.28R
SALMON         CLEAR     46  37  71 CALM      30.23R
BOISE          CLEAR     58  41  53 SE9       30.16S
SPOKANE        PTCLDY    63  44  50 S5        30.14S
$$

REGIONAL REPORTS...ALBERTA

CITY           SKY/WX    TMP DP  RH WIND       PRES   REMARKS
EDMONTON       CLEAR     50  34  53 N8        30.18R
CALGARY        PTCLDY    57  41  54 NW7       30.20R
LETHBRIDGE     MOCLDY    54  46  76 W7        30.15R
MEDICINE HAT   PTCLDY    50  45  81 S5        30.08R
WATERTON GATE    N/A     45  39  81 SW6         N/A
CARDSTON         N/A     52  43  71 SW7         N/A
ONEFOUR          N/A     54  45  71 NW13        N/A
$$

REGIONAL REPORTS...SASKATCHEWAN

CITY           SKY/WX    TMP DP  RH WIND       PRES   REMARKS
SWIFT CURRENT  PTCLDY    48  36  61 SW12      30.01S
REGINA         CLOUDY    48  39  71 N9        29.95R
SASKATOON      MOCLDY    50  41  71 NW9       29.97R
ROCKGLEN         N/A     45  32  61 W3          N/A
ASSINIBOIA       N/A     50  37  62 NW7         N/A
$$



USA.gov is the U.S. government's official web portal to all federal, state and local government web resources and services.